Theta_e
298 291 289 288 291 294 294 295 295 296 296 294 293 292 290 290 290 293 295 295 294 293 291 292 292 291 293 294 295 295 294 293 293 292 294 294 294 294 293 293 292 292 292 294 295 295 296 296 297 300 301 302 303 303 302 302 302 302 302 302 300 301 301 299 298 297 296 294 294 293 292 291 292 292 292 292 292 292 293 293 293 293 293 294 294 294
299 291 290 294 295 296 297 297 296 295 294 294 292 291 289 291 290 293 296 294 294 293 289 291 291 292 293 295 296 294 293 293 294 293 293 293 294 293 293 292 292 292 293 293 294 295 295 295 296 298 300 300 300 301 302 300 300 300 300 299 298 298 298 298 297 296 295 295 294 293 292 292 292 291 290 290 291 291 292 291 292 292 292 292 292 292
291 290 293 296 298 298 298 297 295 295 294 293 291 288 290 288 292 293 294 293 295 295 289 289 290 291 294 296 296 293 294 294 295 294 295 294 293 293 293 292 291 291 291 292 293 294 294 294 295 295 298 299 300 301 301 300 299 299 297 297 297 297 297 297 296 295 294 294 294 293 291 291 290 291 291 290 290 290 290 290 290 290 290 289 289 289
289 290 295 298 298 297 297 296 295 294 293 291 290 289 287 288 291 286 291 293 293 293 289 289 291 292 295 296 297 293 294 292 294 295 294 295 294 293 293 292 291 291 291 291 292 293 293 293 294 294 296 298 299 299 300 299 298 297 297 296 296 295 296 296 295 294 294 293 292 292 291 290 289 288 290 289 289 289 288 287 288 288 288 288 288 288
292 295 299 298 297 297 296 295 294 292 292 290 292 289 289 290 291 292 291 293 293 293 293 290 289 289 292 293 292 291 292 293 293 292 292 293 293 293 293 292 293 292 291 291 291 292 292 292 293 294 296 297 297 298 299 299 298 297 296 295 295 295 294 294 294 293 292 291 290 289 289 288 287 287 286 286 286 286 287 287 286 287 287 288 287 287
294 298 298 296 296 296 296 293 293 293 289 290 290 293 292 292 292 292 293 292 286 287 289 291 283 279 285 289 291 289 291 291 291 291 291 291 290 291 292 291 291 292 292 291 291 292 292 292 292 294 295 295 295 296 298 298 298 296 295 295 295 294 293 293 292 292 290 289 288 287 285 284 284 283 283 283 283 284 285 285 286 286 287 287 287 287
295 298 300 297 295 294 295 294 293 294 290 288 289 293 294 294 292 292 291 290 283 282 289 291 284 280 285 289 290 289 289 290 289 289 290 290 290 290 291 290 291 291 290 290 291 290 290 290 291 292 293 294 294 295 297 297 297 297 296 296 295 294 294 294 292 291 290 288 287 286 285 284 284 283 283 284 284 285 285 286 285 286 286 286 286 286
295 296 296 295 295 293 292 291 294 295 291 286 290 293 294 292 292 290 290 290 286 287 289 289 285 282 283 289 293 290 290 290 289 289 290 290 290 290 290 290 290 290 290 290 290 290 290 290 291 291 292 293 294 294 295 295 295 295 295 295 295 294 294 294 291 289 289 288 287 286 285 285 284 284 284 284 284 285 285 285 285 285 285 285 285 285
295 292 294 292 292 291 291 292 293 295 291 288 293 293 292 292 291 290 290 286 285 286 283 285 288 284 282 285 290 291 288 289 289 289 290 290 290 290 290 290 290 289 289 290 289 289 290 290 290 290 290 292 293 293 293 293 293 293 293 293 292 291 290 290 290 289 288 288 287 286 286 285 285 285 285 285 286 285 285 284 284 284 284 284 284 284
296 294 295 296 294 291 292 291 293 296 291 294 293 293 292 291 290 289 284 287 284 282 281 285 288 283 284 284 288 288 288 290 291 291 290 291 291 290 290 289 290 289 289 289 289 289 289 289 288 289 290 291 292 292 291 291 292 291 291 291 291 289 289 289 289 288 288 287 287 286 286 285 285 285 285 285 284 284 283 283 283 282 283 282 283 283
296 296 296 295 293 293 290 291 291 294 294 294 293 292 289 286 285 283 282 282 282 279 283 286 288 286 280 283 288 287 289 292 292 290 290 290 289 290 290 289 289 289 288 288 288 288 287 287 287 288 289 289 291 290 290 290 290 290 290 290 289 288 288 288 288 288 287 287 286 286 286 285 285 285 285 284 283 283 283 282 282 282 282 282 282 282
293 294 294 293 295 293 293 291 292 291 293 294 287 284 286 284 281 281 280 281 277 278 281 288 288 288 281 280 284 291 290 291 294 291 290 290 290 290 289 289 289 289 288 288 287 285 286 286 286 287 287 288 289 289 289 289 289 289 289 289 288 287 288 288 288 288 287 287 286 286 286 286 286 286 285 284 283 283 282 282 281 281 281 281 281 281
287 288 291 294 296 295 289 290 289 287 290 291 288 288 284 279 277 275 277 276 278 279 282 281 285 283 285 288 287 289 290 290 292 294 292 291 290 289 289 289 289 289 288 287 286 285 285 285 285 286 286 286 287 288 288 288 288 288 288 288 288 287 287 288 288 288 288 287 287 287 286 286 286 285 285 284 283 283 282 281 281 280 280 280 280 280
286 287 292 292 293 295 295 291 284 285 288 289 288 285 283 277 275 270 271 273 274 278 280 282 284 283 283 286 295 293 290 289 289 291 292 292 290 290 289 288 288 288 287 287 286 285 285 285 285 286 286 286 286 287 287 287 287 287 287 287 287 287 287 287 288 288 287 287 287 287 286 286 286 285 285 284 283 282 282 281 280 280 280 280 280 280
280 282 288 291 288 294 296 296 294 290 288 290 289 290 287 283 276 273 275 275 275 274 277 280 282 278 281 285 285 287 287 288 288 290 289 290 290 289 288 288 287 287 286 286 285 285 285 285 285 285 286 286 286 286 287 287 287 287 286 287 287 286 286 287 287 287 286 286 286 286 286 286 285 285 284 283 283 282 282 281 280 280 280 280 280 281
287 287 287 296 292 295 294 296 293 289 289 287 289 289 283 286 282 279 276 276 274 273 275 276 279 280 286 286 286 286 286 288 288 289 289 289 288 288 287 287 287 287 287 286 285 285 284 285 284 285 285 286 286 286 286 286 286 286 286 286 287 287 286 286 286 286 286 286 285 285 285 285 285 285 284 283 283 282 281 281 280 280 280 280 280 280
285 283 288 292 292 295 295 295 294 295 286 287 289 285 287 287 288 280 278 280 277 275 276 275 279 280 285 286 287 286 287 287 287 287 288 288 287 287 287 287 287 287 286 286 285 285 285 284 284 285 285 286 286 286 286 286 286 286 286 286 286 286 286 286 286 286 285 285 285 284 284 284 284 283 283 282 281 281 281 280 280 280 280 280 280 280
286 285 287 288 289 290 289 291 292 292 292 287 283 288 290 290 288 284 278 275 274 274 276 279 279 279 281 279 285 286 285 286 286 286 287 287 287 287 287 287 287 287 286 286 285 285 285 285 284 284 285 286 286 286 286 286 285 286 286 286 286 286 286 285 285 285 285 284 284 283 283 283 283 282 282 281 281 281 280 280 280 280 280 280 280 280
292 284 285 286 288 289 291 293 292 293 293 290 286 290 290 283 282 283 278 277 274 273 271 276 279 280 282 284 282 283 285 286 286 287 286 286 286 287 287 287 286 286 286 285 285 285 284 284 284 284 285 285 286 286 286 286 286 286 285 286 286 286 286 285 285 285 284 284 284 284 283 282 282 281 281 281 281 280 280 280 280 280 280 279 279 279
291 286 283 285 287 289 289 289 285 287 292 290 291 289 288 284 280 280 283 276 279 273 274 273 276 277 283 286 285 288 288 289 287 286 287 288 288 288 288 287 287 286 286 286 286 285 285 284 284 284 284 284 285 285 286 285 285 285 285 285 285 285 285 285 284 284 284 284 283 283 282 281 281 281 281 281 280 280 279 279 279 279 278 278 278 277
290 290 280 284 286 289 284 286 287 290 287 285 284 284 286 283 285 282 282 281 277 271 272 271 274 277 281 288 289 290 290 290 289 289 289 289 289 289 289 288 288 287 287 287 287 286 285 284 283 283 283 284 284 285 285 285 285 285 285 285 285 285 285 284 284 284 283 283 282 282 281 281 281 281 281 280 279 279 279 279 279 278 278 278 277 277
289 287 283 282 283 282 284 287 289 290 291 288 288 287 289 286 282 279 280 283 277 278 276 272 279 277 283 289 289 291 292 291 290 291 290 290 289 289 289 289 288 288 288 288 287 286 285 284 283 283 283 283 284 284 284 285 285 285 285 285 285 285 284 284 284 284 283 282 282 281 281 281 281 280 280 280 280 279 278 278 278 277 277 277 276 276
295 286 284 281 281 285 287 289 289 289 289 289 289 285 288 287 286 281 278 277 279 281 275 275 273 278 284 287 285 284 287 290 291 291 289 290 290 290 290 290 289 289 289 288 287 286 285 284 284 283 283 283 284 284 284 284 285 285 285 284 284 284 284 284 284 283 282 282 281 281 281 281 280 279 279 279 279 278 277 277 277 277 276 276 276 276
294 288 285 284 284 285 288 288 290 289 291 288 288 286 286 287 287 286 282 278 283 276 278 276 277 276 283 284 282 280 280 283 287 288 289 289 290 290 290 289 289 288 288 287 286 286 285 283 282 282 282 283 283 283 284 284 284 284 284 284 284 284 284 284 283 283 282 281 281 281 280 280 280 279 279 279 279 278 278 278 278 278 277 276 276 276
290 287 288 284 282 282 283 286 286 288 288 284 285 289 289 287 288 285 284 283 280 281 281 280 278 277 286 284 285 285 286 287 288 288 289 289 289 290 290 290 289 288 287 287 286 286 284 283 282 283 283 283 283 283 284 284 284 284 284 284 284 284 283 283 283 282 282 281 280 280 280 279 280 280 279 279 279 278 278 278 277 277 277 276 275 276
292 287 288 283 281 278 277 276 279 281 284 284 280 283 288 289 288 286 284 283 282 280 282 279 282 279 283 285 287 285 284 287 288 289 289 289 290 290 290 290 289 288 288 287 286 285 284 284 283 283 283 283 283 283 284 284 284 284 283 284 284 284 283 283 283 282 281 280 280 280 279 279 279 279 279 279 278 278 278 277 277 276 276 276 275 275
288 287 289 288 286 284 286 283 285 285 283 283 284 287 288 290 291 290 288 284 283 282 282 286 284 282 284 285 285 286 282 288 288 286 288 289 288 288 289 290 289 289 288 287 287 286 284 283 283 283 283 283 283 283 283 284 284 283 283 283 283 284 283 283 282 281 281 280 280 280 279 279 279 279 279 278 278 277 277 276 276 276 276 276 275 275
287 287 288 289 288 290 286 284 286 288 285 286 286 286 288 288 289 287 286 285 288 283 281 286 284 285 285 284 285 285 285 286 287 287 287 287 288 290 289 288 290 287 286 286 285 285 285 284 283 283 283 282 282 283 283 283 284 284 283 283 283 283 283 283 282 281 280 280 279 279 279 280 279 279 278 277 277 276 276 276 276 276 275 275 275 274
287 287 289 288 288 290 289 286 285 286 287 287 288 287 286 288 288 286 287 289 287 285 284 286 286 286 286 287 288 287 288 290 290 289 290 289 289 287 287 287 287 287 286 285 286 285 285 284 284 283 282 282 282 282 282 283 283 283 283 283 283 283 283 283 282 281 280 280 279 280 280 279 278 278 277 277 276 276 276 275 275 274 275 275 274 274
289 287 288 288 288 289 289 288 286 286 285 286 286 286 288 287 287 288 288 290 289 288 290 285 286 287 286 289 289 290 291 292 290 289 288 288 289 288 288 287 287 287 286 286 286 286 285 285 284 283 282 281 281 282 282 283 283 283 283 283 283 283 283 282 282 281 280 279 279 279 279 278 277 277 276 276 275 275 275 275 274 274 274 274 273 273
290 287 290 286 286 286 288 288 286 286 285 286 287 286 286 287 287 288 289 290 290 288 288 284 286 286 288 290 291 291 290 290 289 289 289 290 289 288 288 287 287 287 287 287 286 286 285 285 284 282 282 281 281 282 282 283 283 283 283 283 283 283 283 282 281 281 280 280 279 278 278 277 276 275 275 276 275 275 274 274 274 274 274 273 273 272
289 285 285 287 284 285 287 286 287 286 285 285 286 286 286 285 284 287 286 289 288 287 288 285 285 286 288 290 290 290 291 291 289 289 289 289 289 287 287 287 286 287 287 287 287 286 285 284 284 283 282 282 282 282 282 282 282 282 283 283 283 283 282 282 281 281 280 279 278 277 277 276 275 275 275 275 275 274 274 274 273 273 273 272 272 271
287 285 284 284 283 284 288 287 286 285 285 283 284 287 288 286 288 288 289 290 290 291 287 285 287 288 290 289 289 289 289 290 289 289 288 287 287 287 287 287 287 287 287 287 287 286 286 286 285 284 284 283 282 282 282 283 282 282 283 283 283 283 282 282 281 280 279 278 277 277 277 276 275 275 275 275 274 274 273 273 273 272 272 271 271 271
287 287 286 288 282 284 286 286 286 283 277 280 289 293 291 287 287 286 287 288 289 291 290 290 290 289 289 288 289 288 288 290 292 292 292 292 289 286 286 287 287 287 287 287 287 287 287 286 286 285 285 284 284 283 283 283 283 283 283 283 282 282 281 281 280 280 279 278 277 276 276 275 275 274 274 275 274 273 272 272 272 272 272 271 271 271
287 287 286 287 284 281 284 284 282 276 279 287 285 288 293 292 291 289 289 290 289 290 290 289 288 288 290 290 291 291 291 291 288 290 289 287 290 290 289 288 287 287 287 287 286 286 286 287 286 285 284 284 284 284 283 282 282 281 281 282 282 282 281 280 280 279 279 278 277 276 275 275 274 274 274 274 273 273 272 272 272 272 271 271 271 270
287 286 286 285 284 282 281 282 276 278 284 283 284 283 285 290 290 289 287 289 290 290 290 290 292 293 292 289 288 289 289 289 287 285 285 285 288 291 288 288 288 287 287 287 287 287 287 286 286 286 286 286 284 283 282 282 281 281 281 281 282 281 280 280 279 279 278 277 276 275 275 274 274 274 273 273 272 272 272 272 271 271 271 270 270 269
290 288 287 283 286 279 281 281 282 284 282 282 281 281 286 285 286 287 284 287 291 291 290 290 291 291 289 290 289 285 284 285 286 286 284 283 287 286 288 288 288 287 288 288 288 288 287 287 286 286 284 283 283 282 281 280 280 280 280 280 280 280 280 279 279 279 278 277 276 275 275 275 274 273 273 272 271 271 271 272 271 271 270 270 270 269
290 287 288 284 283 285 280 278 278 279 278 282 281 282 285 287 291 290 289 284 287 289 290 290 290 290 289 287 285 283 285 285 284 285 286 286 284 285 284 284 284 284 284 283 283 283 283 283 283 282 283 282 282 282 281 280 280 280 279 280 280 279 279 279 279 279 278 277 277 276 275 275 275 274 273 272 271 272 272 272 272 271 270 270 269 268
286 287 287 286 284 281 280 278 278 277 280 281 282 282 284 285 289 286 282 280 285 286 288 289 290 289 288 287 282 284 284 282 284 285 285 283 283 284 284 283 282 282 283 284 285 284 283 283 284 283 282 281 281 281 280 279 279 279 279 279 279 279 279 279 279 279 278 278 277 276 276 275 275 275 274 273 273 273 272 272 271 271 270 269 269 268
284 284 285 283 282 283 281 279 278 282 278 282 281 282 283 285 288 286 273 275 283 285 287 288 289 289 287 284 283 284 284 280 284 284 283 282 283 283 283 283 281 281 281 280 281 283 283 281 281 280 280 280 282 279 278 279 279 279 279 278 278 278 279 279 280 280 280 278 277 276 276 276 275 275 275 274 274 273 273 272 270 269 269 267 267 265
281 281 284 280 283 283 283 280 280 279 284 282 280 279 281 286 286 278 274 280 284 283 282 287 288 287 285 282 284 284 286 286 284 283 280 279 280 279 278 280 281 281 281 280 281 281 280 280 283 283 281 281 278 276 277 278 279 279 278 278 277 278 279 280 280 279 278 277 276 276 276 276 275 275 275 274 274 274 272 270 269 268 267 266 265 263
280 280 280 283 281 281 282 279 279 280 284 284 280 282 284 285 275 276 284 283 284 283 280 283 283 282 283 284 285 285 284 283 280 279 279 279 280 279 278 278 278 278 278 278 279 279 278 277 277 277 277 276 275 276 277 278 278 278 277 276 277 279 280 277 277 277 276 276 276 276 275 275 275 275 273 271 271 270 269 269 269 267 266 266 264 263
281 280 277 280 282 281 280 279 277 274 283 283 282 282 283 280 280 284 281 281 282 283 283 282 285 284 283 282 283 283 279 278 279 279 279 278 278 279 278 278 279 279 279 278 277 276 277 276 276 276 276 274 273 275 276 277 277 275 275 276 278 278 275 276 276 276 276 275 275 274 274 273 272 272 270 269 269 269 269 267 266 265 265 264 263 262
286 279 278 281 284 277 279 277 278 284 283 284 285 282 285 284 284 283 284 281 280 281 283 282 281 284 283 283 282 279 277 278 277 277 277 277 277 276 276 277 276 276 276 276 276 276 274 276 275 275 274 273 272 274 276 277 277 275 275 277 279 274 274 274 275 274 275 274 274 273 272 271 271 270 269 268 268 268 266 265 265 264 264 263 262 262
286 282 283 280 285 281 280 283 284 283 285 286 284 283 287 285 283 284 285 284 282 280 279 282 282 280 281 282 280 280 278 278 279 278 278 278 277 277 277 277 277 277 277 277 276 273 273 277 276 275 273 272 271 271 274 276 277 275 275 278 275 276 274 274 273 274 274 274 273 272 271 269 269 268 267 267 267 266 264 263 262 262 261 261 261 261
281 282 283 282 282 284 284 284 283 281 283 283 283 283 284 282 282 282 284 283 281 282 281 282 280 280 278 278 279 276 280 278 277 276 275 275 276 276 276 275 274 274 274 275 275 274 274 273 272 271 273 272 270 272 272 274 276 276 278 276 276 275 274 274 273 273 274 273 272 271 269 268 266 266 265 265 266 266 265 264 262 263 261 261 261 261
281 280 282 281 281 283 279 281 282 283 282 282 283 283 283 283 282 282 283 284 282 280 281 279 280 280 280 278 281 278 278 277 278 277 277 276 276 276 276 277 277 276 276 275 275 273 272 271 271 272 272 274 273 272 272 272 275 278 278 273 274 274 274 273 274 274 273 272 271 268 267 268 267 264 263 263 263 263 263 263 262 263 261 261 261 261
279 281 280 279 280 281 280 280 279 278 280 282 283 284 283 282 282 282 282 281 281 280 280 280 278 277 278 279 279 279 279 277 278 278 277 277 278 277 276 276 276 274 274 274 273 272 270 272 274 274 272 274 275 272 272 273 275 276 274 269 273 272 272 273 273 274 273 271 269 268 267 268 265 264 263 263 263 263 262 262 262 263 263 262 262 262
282 283 276 280 279 280 278 278 278 279 280 282 281 281 283 284 282 281 281 280 279 280 279 278 279 279 280 280 279 279 278 277 278 278 277 277 275 275 276 276 275 275 274 274 272 273 275 274 273 274 273 275 274 271 270 271 273 272 272 272 269 271 272 273 272 272 269 268 267 267 266 266 265 265 264 263 262 264 264 264 263 263 264 264 264 265
280 279 279 279 275 277 279 279 279 277 275 279 280 282 282 281 282 281 280 280 280 280 279 280 278 277 277 278 278 277 278 276 275 275 276 276 277 276 275 275 275 275 274 274 274 273 274 273 274 274 274 275 273 271 271 272 272 272 271 268 267 270 273 272 270 269 269 268 267 266 264 265 264 263 263 263 263 262 262 264 267 266 264 264 266 269
282 281 279 278 279 278 281 280 282 281 280 281 283 282 281 281 281 281 281 281 280 281 280 280 278 277 277 276 276 278 276 278 277 276 275 275 277 277 277 276 275 274 275 272 272 270 272 274 273 273 273 275 273 272 272 273 273 270 268 269 269 269 270 269 270 269 268 266 267 266 265 265 264 263 263 262 262 262 262 261 264 270 271 270 268 270
Wind_Speed
4 4 5 7 8 9 6 9 9 8 6 2 1 2 4 4 4 4 1 2 2 0 6 7 7 5 6 7 5 9 6 6 5 5 8 7 7 7 6 6 7 6 6 4 5 5 4 3 3 3 3 4 5 3 4 5 5 6 7 8 8 5 5 5 7 7 7 8 9 9 9 10 7 8 8 9 8 9 8 9 9 9 8 9 9 9
3 5 8 9 9 8 9 8 7 5 4 5 5 3 5 1 5 3 1 1 1 3 2 4 4 6 8 7 7 5 6 10 11 8 8 9 8 7 8 7 7 6 4 5 4 4 4 4 3 3 4 3 5 4 5 5 5 5 5 6 6 6 6 6 6 6 6 5 6 9 8 9 7 7 8 9 8 8 8 10 9 9 9 10 9 9
5 10 9 10 6 5 5 5 5 9 7 4 4 3 1 5 3 5 1 2 0 1 7 4 4 7 9 9 7 5 11 8 8 9 11 12 9 8 7 8 8 7 6 5 5 5 5 5 4 4 4 4 5 5 4 4 6 5 6 5 6 6 6 6 7 7 8 7 7 8 8 9 10 8 8 9 8 8 10 9 9 9 9 9 9 8
5 6 11 8 5 5 6 5 4 2 2 3 1 2 6 4 0 5 2 1 2 4 1 2 6 7 7 9 12 3 8 2 2 6 8 10 12 11 12 11 10 8 9 8 7 7 6 6 5 4 5 5 5 5 5 4 6 5 5 6 6 6 6 7 6 9 9 10 11 10 10 9 9 9 8 10 8 9 10 11 8 8 7 8 9 8
11 3 6 8 7 7 7 4 5 5 7 2 4 3 2 2 4 7 4 1 1 4 1 3 6 7 8 11 6 2 1 3 2 4 4 1 3 5 5 6 9 11 10 9 7 6 6 6 6 5 5 4 5 4 4 4 4 6 6 7 7 7 7 7 8 10 11 12 11 12 10 10 11 7 7 9 9 7 7 9 9 8 7 8 9 8
10 8 3 8 7 6 6 5 7 7 7 4 4 8 6 5 5 3 1 2 4 3 2 1 6 4 2 4 6 1 0 2 1 4 5 4 4 6 8 7 5 6 7 10 9 8 7 6 5 5 5 5 4 4 4 3 5 7 7 8 7 7 7 8 8 9 8 9 11 10 10 9 9 8 7 8 8 7 8 8 5 8 8 8 8 8
6 4 6 4 5 6 7 7 5 7 7 3 5 5 6 7 6 4 2 2 3 5 2 2 5 8 6 6 2 3 4 6 2 4 5 4 5 5 6 6 7 8 7 5 6 6 7 6 6 5 6 6 5 3 5 5 6 7 8 8 7 8 7 7 7 5 6 7 6 7 8 8 9 11 6 5 5 7 6 6 8 7 8 8 10 9
3 7 8 5 6 8 7 7 5 8 6 5 2 3 5 5 6 5 3 5 5 1 2 1 2 4 9 7 6 7 7 9 7 8 6 6 6 6 5 5 6 7 7 8 8 7 6 6 7 7 6 5 5 4 5 5 5 7 8 8 7 5 7 6 5 5 5 8 7 9 9 8 8 9 10 7 7 6 7 9 8 8 8 9 8 8
3 5 6 6 6 6 9 6 4 6 6 3 1 5 4 6 3 4 3 2 1 2 8 3 1 2 7 6 2 5 5 8 14 12 11 8 7 7 6 6 6 6 7 9 9 8 8 7 6 6 7 5 5 4 5 5 6 6 6 7 7 7 6 6 7 8 6 8 8 9 10 10 7 9 8 7 6 8 7 10 7 8 7 7 8 7
1 5 7 9 8 8 3 1 1 9 4 1 2 6 5 5 4 3 2 1 2 1 8 7 6 6 11 4 0 0 3 10 14 12 11 11 11 9 8 6 7 5 6 5 7 7 7 6 6 5 6 6 4 4 4 4 6 6 5 8 8 7 6 7 8 9 8 7 8 9 9 13 10 8 7 6 8 7 7 9 7 6 7 6 6 7
1 1 3 3 5 4 5 2 2 1 4 5 5 8 6 8 4 2 4 3 3 7 8 9 9 7 8 4 8 7 9 8 3 1 4 5 6 7 7 9 8 8 7 6 6 5 6 5 7 7 7 6 5 4 5 5 6 6 6 8 8 6 7 7 9 10 9 6 6 9 9 11 12 9 9 10 8 7 7 8 7 7 6 5 6 6
0 1 1 1 3 4 4 4 6 2 4 9 2 4 6 3 5 3 2 2 2 8 4 12 12 12 10 4 6 7 4 3 8 8 10 11 12 10 8 8 9 8 8 7 7 7 8 7 6 6 7 6 6 5 6 5 6 6 6 8 9 6 7 7 8 10 9 7 6 7 9 9 9 10 9 10 10 8 8 8 8 6 6 5 5 5
3 2 1 2 2 9 3 7 4 5 1 6 7 7 6 3 4 2 2 3 7 9 0 1 2 1 15 8 4 3 7 3 5 7 12 13 11 9 8 9 8 8 8 9 8 8 8 9 9 8 7 7 6 7 7 7 6 7 7 9 10 7 6 8 8 10 9 8 6 7 8 7 8 8 9 9 9 7 8 8 8 7 7 6 6 5
6 1 2 2 3 4 8 9 2 0 4 7 9 8 7 2 2 4 4 3 5 4 4 0 3 6 2 6 14 13 7 4 4 3 6 12 13 12 11 9 8 7 8 8 8 8 8 8 8 8 8 7 7 7 8 7 7 7 7 8 10 8 7 7 8 9 9 7 7 6 7 7 7 8 8 7 9 7 7 7 7 7 7 7 6 6
4 4 7 7 5 5 9 11 16 8 10 10 4 12 10 8 5 4 6 6 7 4 1 2 4 7 5 5 3 3 3 3 2 2 4 5 6 6 6 6 7 7 6 7 8 8 9 9 9 9 9 8 8 8 8 7 8 8 8 9 10 10 7 8 8 8 9 8 7 7 7 7 7 8 7 7 7 8 8 6 7 6 6 7 6 6
14 8 5 11 1 9 12 4 6 6 3 3 2 3 5 9 5 6 5 2 1 1 0 1 6 5 6 1 3 2 3 5 4 5 7 7 7 8 8 9 9 8 8 7 8 8 8 8 8 8 8 8 8 8 7 8 8 9 9 9 10 11 9 9 9 8 9 8 8 8 8 8 8 7 7 7 6 6 6 7 8 7 6 6 6 5
2 6 1 3 4 10 11 3 4 8 7 4 5 8 9 4 4 1 2 0 1 2 8 3 5 5 6 2 0 1 1 2 3 3 5 6 8 8 9 8 8 9 8 8 9 9 9 7 7 8 8 8 8 9 9 9 8 10 10 10 10 10 9 9 9 9 9 9 9 8 8 8 8 9 9 9 8 8 6 7 7 7 6 6 5 6
8 3 1 4 4 1 0 0 1 2 4 7 5 9 3 2 3 3 4 2 0 5 6 6 8 4 2 7 0 1 3 3 2 3 5 5 7 10 10 10 10 10 8 7 6 7 8 8 8 8 7 8 9 9 8 8 7 8 9 10 11 11 12 9 10 10 9 10 10 9 9 8 8 8 7 8 9 8 9 7 7 6 7 6 5 5
5 3 1 1 1 3 2 2 1 1 1 8 7 3 9 5 3 2 3 5 2 5 4 4 6 7 11 9 2 6 8 10 9 6 6 9 9 10 9 9 7 6 7 9 10 9 10 10 9 9 9 8 8 7 7 7 8 8 7 8 10 11 11 10 9 8 7 8 8 8 9 10 8 7 7 6 7 7 8 8 7 7 6 6 5 6
1 5 1 2 2 1 1 3 8 6 1 1 2 1 1 2 1 7 8 3 4 5 0 7 3 9 8 6 13 14 16 15 12 9 12 14 14 12 11 11 11 11 11 10 10 10 10 10 9 10 11 11 11 10 9 9 8 9 9 9 8 7 8 8 9 9 10 8 8 8 8 7 8 8 8 7 8 7 7 7 8 7 7 6 5 5
3 0 3 1 3 2 2 4 10 12 11 2 2 3 0 0 2 3 1 5 5 3 5 2 6 6 7 7 13 15 15 14 16 18 14 12 12 11 11 12 12 11 11 11 11 11 10 10 9 8 8 8 6 6 7 8 10 10 9 10 10 12 10 10 9 9 8 8 8 10 10 9 8 8 8 8 7 7 7 6 6 6 6 6 6 6
2 0 5 1 0 4 6 4 4 4 4 5 9 12 14 11 5 5 9 1 2 2 5 4 13 4 5 1 5 9 11 13 15 17 15 12 11 11 10 10 11 11 11 11 10 9 9 9 8 7 6 6 7 8 9 8 8 9 10 9 9 9 9 10 9 9 8 7 9 10 10 9 6 7 7 8 8 8 7 6 6 6 6 6 5 6
7 2 6 5 6 8 8 3 1 2 1 3 3 3 3 4 3 4 7 4 0 6 3 2 2 9 4 1 2 5 4 10 15 12 10 9 11 11 10 10 10 11 11 11 10 9 9 8 8 9 9 10 10 9 8 7 9 10 9 9 8 10 10 9 9 7 8 9 9 9 8 8 8 8 8 9 8 8 7 7 7 6 7 7 6 5
7 3 2 2 0 3 3 2 1 0 2 2 4 4 5 11 9 7 3 5 7 2 3 2 6 6 1 0 2 3 3 4 4 7 10 9 9 9 9 10 10 8 6 6 6 7 7 7 7 8 9 10 10 10 11 9 8 8 8 9 9 11 11 10 9 8 8 8 8 8 8 8 8 9 9 9 8 9 8 7 7 7 7 6 6 7
4 3 6 2 1 1 1 2 2 1 1 5 6 9 8 1 4 4 1 1 0 9 9 8 16 2 2 2 2 1 2 5 8 6 8 10 7 8 9 8 7 7 6 8 10 10 9 9 11 12 11 11 10 9 9 10 10 10 10 9 11 10 9 9 8 9 8 9 10 8 9 9 9 10 10 9 8 9 9 8 8 7 8 7 7 6
4 4 8 8 11 9 7 7 9 9 12 4 1 2 8 14 11 4 10 6 10 3 10 5 10 4 2 1 0 0 4 5 3 5 5 5 9 10 7 7 7 8 10 10 9 10 13 13 10 9 10 11 11 11 10 9 9 9 9 10 9 10 9 9 8 8 9 9 10 10 10 10 9 10 10 10 9 10 9 9 8 8 7 7 8 7
3 3 9 12 11 12 10 1 1 6 5 7 8 12 13 14 16 11 4 2 16 4 8 15 6 3 3 3 3 4 4 9 7 5 7 5 4 5 6 8 9 9 10 12 12 9 6 6 13 14 12 11 10 9 10 11 10 9 9 10 9 9 10 9 9 8 9 9 10 10 11 10 10 10 10 10 9 9 8 8 8 8 9 8 8 7
3 5 12 12 13 16 4 2 2 10 10 11 10 13 13 13 15 15 15 20 6 4 17 7 8 10 9 6 7 7 5 4 5 5 4 3 6 8 7 5 5 5 5 5 6 9 13 13 10 10 12 11 11 10 10 9 10 11 11 12 10 10 10 9 10 10 10 10 9 9 10 10 9 10 9 9 9 9 9 9 9 8 7 8 8 7
7 9 11 10 16 15 8 4 3 3 6 6 12 13 13 15 14 19 22 18 9 14 20 8 13 14 8 11 11 9 10 10 10 11 8 5 5 4 5 6 8 8 6 8 9 9 9 10 12 13 12 12 10 11 11 10 10 9 8 8 10 10 11 10 11 11 11 10 10 10 9 8 7 7 7 8 9 9 9 8 8 8 8 7 7 7
3 9 4 8 15 14 14 9 4 5 4 4 7 12 16 17 21 22 20 19 18 16 16 5 10 13 4 10 8 10 11 9 5 4 5 6 8 7 7 7 8 8 8 9 10 10 11 12 11 11 10 9 11 12 11 12 12 13 12 11 10 9 9 10 11 11 11 10 10 9 9 8 7 8 8 8 8 8 8 8 9 10 8 7 8 7
6 8 7 4 7 13 14 8 6 7 5 11 12 11 15 18 17 18 18 20 17 15 12 5 8 10 5 6 10 2 3 6 8 8 9 8 8 8 9 9 8 8 9 9 8 9 10 10 8 6 8 11 12 14 15 14 12 9 9 10 10 11 10 10 11 11 11 12 10 9 9 9 8 8 9 9 7 7 8 9 9 9 9 8 7 7
5 4 3 5 8 12 10 10 11 7 5 10 16 19 20 13 11 14 17 16 14 19 17 6 7 10 3 7 3 4 6 8 9 9 7 6 8 8 8 8 7 8 9 10 10 9 8 9 9 10 12 13 14 14 12 11 10 10 13 12 12 11 10 11 12 12 12 11 10 10 11 10 10 10 10 9 8 8 6 7 7 7 7 7 7 6
8 5 6 5 9 11 12 7 11 5 4 9 20 29 19 12 17 16 14 14 18 15 11 13 18 4 10 5 6 2 4 4 4 4 4 4 5 8 10 10 10 9 9 10 9 9 10 11 12 13 13 11 12 12 13 13 11 14 14 13 12 9 12 13 13 12 12 11 11 12 11 10 11 10 9 8 8 7 6 7 6 7 8 8 6 6
6 8 8 7 7 6 6 7 6 6 12 19 9 2 14 20 20 18 19 17 9 11 11 8 4 7 9 6 9 6 5 6 7 8 7 10 9 7 7 8 9 9 9 8 9 10 11 8 8 10 12 13 13 14 13 13 15 15 11 11 10 13 12 13 12 12 12 12 12 11 10 10 10 9 9 8 8 8 8 8 8 7 6 6 6 6
11 9 8 5 4 4 5 9 8 16 19 2 3 4 12 17 13 14 8 8 10 10 6 3 4 8 11 9 9 8 9 5 5 7 6 5 7 9 10 9 8 8 9 9 9 8 8 10 9 8 7 9 11 10 9 10 10 6 8 10 12 11 12 11 12 11 12 12 11 10 10 10 10 10 9 9 9 9 9 9 7 7 7 8 7 8
10 11 4 3 3 3 5 9 8 11 2 5 6 4 3 5 8 8 7 8 8 10 10 10 11 9 9 6 4 5 6 6 3 3 4 5 7 9 7 7 9 9 9 9 9 9 9 8 10 11 12 9 6 7 9 11 9 9 10 9 12 11 11 11 12 13 12 11 11 11 11 11 11 11 10 10 9 10 10 9 9 10 8 7 6 4
12 8 8 6 6 8 6 12 13 4 6 3 0 2 8 10 9 15 13 14 12 10 10 9 10 7 4 6 9 6 3 3 2 4 2 4 6 4 6 8 7 9 9 7 7 7 7 8 9 8 4 5 6 7 9 7 9 10 9 10 10 11 11 11 13 13 13 12 12 13 13 13 13 12 11 11 11 11 11 11 9 8 7 8 6 8
8 13 8 10 6 10 7 6 4 6 14 10 4 4 4 2 7 6 8 5 3 8 9 10 10 7 8 5 5 5 5 3 5 7 5 5 3 4 1 1 2 2 3 3 1 1 3 2 1 3 6 6 7 9 7 8 10 10 10 11 10 11 11 12 15 14 13 13 13 14 13 13 12 12 12 12 14 14 11 10 7 8 9 11 10 9
1 1 5 14 5 5 7 11 10 12 9 3 7 6 6 4 10 6 4 7 4 8 10 12 12 10 9 8 5 6 5 5 10 6 6 5 4 4 5 2 3 4 4 5 6 5 4 4 5 5 4 6 7 7 7 9 11 10 11 10 10 11 12 14 15 13 14 15 13 11 12 12 12 12 13 14 14 13 13 12 12 9 8 8 8 7
6 6 5 10 9 10 12 11 12 5 4 4 4 3 5 6 10 8 3 8 4 10 11 11 12 10 7 5 9 8 9 7 9 5 4 4 4 4 5 6 4 4 4 3 2 4 4 4 5 4 5 7 9 6 8 8 9 10 10 10 9 11 14 16 16 14 13 9 10 11 11 11 13 12 13 14 11 10 10 8 7 9 9 8 7 7
8 5 10 16 14 12 12 10 1 4 2 2 6 3 4 5 8 8 11 4 4 5 2 7 9 8 6 7 8 7 9 5 3 5 6 4 6 5 3 2 3 5 6 4 4 2 4 4 6 8 9 7 5 6 7 8 9 9 8 8 9 13 16 15 10 8 8 9 9 10 12 11 12 14 12 10 10 9 7 7 9 8 8 9 7 6
2 4 2 5 10 11 10 9 7 1 5 9 2 9 8 7 5 9 3 2 9 7 3 5 5 5 8 10 9 6 3 2 4 5 5 5 6 4 4 4 3 1 0 0 3 4 4 4 4 3 2 2 5 6 7 8 9 8 6 7 11 16 13 5 6 7 7 10 11 11 11 12 10 10 9 7 7 8 7 6 7 7 8 7 8 9
15 12 12 13 7 2 3 6 2 7 2 9 8 2 4 4 5 5 4 1 2 8 8 4 7 6 7 5 4 4 4 5 7 6 5 5 6 6 6 5 6 6 6 3 3 3 5 5 5 6 5 2 4 5 6 7 8 6 6 9 16 9 4 6 6 8 9 9 10 11 11 11 11 10 8 9 9 9 9 7 8 8 8 9 8 9
3 4 3 6 5 8 9 10 8 2 8 11 16 12 9 7 3 8 9 4 2 5 7 7 3 6 6 7 6 3 4 6 2 3 4 4 4 3 4 3 3 3 3 4 4 6 5 5 4 4 3 2 4 5 6 9 8 7 8 14 9 4 5 6 7 7 8 9 10 10 10 10 10 9 8 9 9 9 9 9 8 7 8 8 9 9
4 6 1 5 3 5 3 0 1 1 11 11 1 2 6 6 6 8 10 10 9 4 3 7 6 4 7 6 6 8 4 5 7 8 8 7 6 6 6 8 8 9 9 8 6 4 5 6 6 4 4 3 5 5 6 6 9 8 10 10 5 7 7 7 7 9 9 10 9 10 9 8 9 9 9 9 10 11 9 8 8 9 6 7 7 8
3 2 1 4 3 1 1 0 2 2 4 5 2 2 8 5 3 4 11 7 3 5 7 6 5 7 4 4 7 3 7 7 7 6 4 5 7 7 5 3 4 4 4 2 2 4 5 2 2 4 6 5 4 5 5 6 8 9 12 5 7 7 7 8 9 9 11 10 9 9 8 10 8 7 7 8 8 10 10 12 11 10 9 9 9 9
2 1 2 3 2 3 6 2 5 5 5 5 3 1 1 5 7 5 6 7 6 7 6 4 9 9 9 7 7 8 6 7 8 7 6 5 5 5 6 6 5 6 6 7 5 5 4 5 4 5 6 7 6 6 5 7 8 11 6 5 6 6 7 8 10 10 9 10 9 8 9 11 10 8 7 7 7 6 7 7 8 9 10 10 11 10
3 3 3 3 2 6 2 3 2 2 2 4 4 8 6 3 3 2 3 5 6 7 7 8 5 4 5 5 7 8 7 6 7 6 5 6 6 6 5 6 6 4 5 4 4 5 4 5 6 6 6 8 7 5 5 7 10 10 6 4 6 6 7 9 10 11 10 10 9 9 10 10 10 11 9 9 10 10 8 8 10 12 13 15 14 13
4 7 5 5 5 2 1 0 2 3 3 1 1 1 3 7 6 4 4 6 6 6 3 3 2 6 7 7 7 7 6 6 7 8 7 5 4 4 5 6 6 6 4 4 5 6 8 7 7 7 6 9 5 4 5 7 8 5 6 6 5 7 9 10 9 8 6 7 7 8 8 9 9 10 10 9 9 10 11 14 14 14 12 10 9 12
6 7 2 5 2 5 11 8 8 6 3 3 5 6 5 3 6 6 4 5 5 6 5 6 3 3 5 7 8 7 7 5 4 4 6 6 7 7 5 5 4 4 5 4 5 6 6 7 8 8 8 9 6 5 7 9 10 7 5 4 5 6 9 8 7 6 8 7 8 7 8 8 8 8 9 10 10 10 8 8 11 9 9 9 10 16
9 6 8 7 9 9 5 7 9 4 4 6 9 8 5 4 7 8 8 7 5 6 7 7 5 2 3 3 4 7 5 6 7 5 5 4 6 7 6 5 5 4 5 4 5 5 7 8 7 7 7 10 6 7 8 8 8 5 4 5 5 6 6 5 7 7 7 7 9 10 10 8 8 8 8 8 8 9 10 8 9 17 19 13 11 14
Wind_Direction
128 134 171 195 209 204 206 197 201 211 189 213 152 139 202 192 279 288 255 235 119 26 232 229 242 248 266 253 233 212 202 217 209 181 180 176 166 165 160 150 139 137 146 156 128 120 117 104 102 103 91 97 87 67 76 91 90 103 114 115 107 111 104 107 109 96 101 106 100 84 83 88 80 77 79 72 63 64 62 61 61 60 61 61 66 65
88 185 225 214 203 189 203 210 217 235 238 222 229 211 273 185 257 239 259 188 308 175 291 253 254 265 255 266 264 217 181 210 203 196 186 178 174 168 158 148 143 144 134 132 115 116 109 109 88 96 103 103 100 71 71 80 77 84 91 98 95 85 80 79 82 95 88 78 93 107 99 98 86 82 78 81 69 70 67 62 62 64 62 63 63 63
195 213 223 220 207 201 228 212 193 204 225 226 213 214 203 276 230 287 328 157 258 158 262 289 275 266 273 268 269 189 201 218 209 188 184 167 172 168 165 150 142 145 155 150 152 143 140 130 118 115 116 114 114 108 91 97 96 81 84 87 92 89 94 91 93 98 100 99 93 101 103 100 96 73 80 84 83 78 75 64 60 58 59 62 63 59
242 274 240 221 195 204 244 235 169 95 93 151 144 158 223 231 84 287 306 321 249 184 230 253 276 269 271 263 258 271 202 192 156 177 180 176 169 175 177 165 157 161 158 158 161 157 149 142 135 128 125 129 126 119 114 112 111 101 95 95 93 91 92 97 91 97 94 95 98 89 99 90 90 105 93 87 77 74 72 64 57 52 55 59 63 57
199 222 209 182 197 192 222 213 170 183 242 260 186 185 184 208 219 197 256 242 305 316 352 314 301 296 252 264 274 351 23 116 95 96 96 70 149 153 139 148 162 161 160 158 160 162 153 142 146 149 136 125 124 123 126 128 121 117 117 110 108 107 107 107 115 113 116 110 100 102 93 96 92 75 85 85 67 64 72 75 56 50 53 58 62 59
240 240 108 156 200 213 213 222 204 169 225 259 226 190 204 202 227 244 330 39 15 326 301 134 327 300 280 274 247 236 332 185 251 150 169 152 133 141 155 164 160 154 161 160 161 164 159 147 146 136 128 125 117 118 131 131 120 122 119 116 112 110 113 115 115 117 116 118 125 126 120 110 102 91 79 84 98 82 71 75 78 61 53 60 64 59
213 197 226 191 175 213 212 211 225 168 204 188 269 190 198 209 208 184 244 67 301 254 292 88 192 277 322 304 236 198 206 230 277 225 208 178 172 169 162 157 158 155 151 146 147 147 144 150 143 142 139 139 127 116 128 130 125 124 122 119 124 123 121 122 120 110 113 101 100 108 107 112 115 113 87 96 91 94 89 85 73 69 57 53 62 55
135 184 187 184 178 189 199 207 233 168 147 235 246 149 170 187 192 195 138 175 237 222 289 59 117 268 284 248 253 187 201 225 235 238 231 212 196 191 177 167 156 155 154 153 155 155 154 155 153 149 142 137 136 123 115 118 117 123 124 123 119 118 122 123 113 97 105 112 112 108 104 104 106 106 118 111 101 92 94 82 72 68 58 53 52 60
164 185 164 178 183 179 198 205 197 153 149 218 234 147 108 143 159 126 128 159 215 15 288 183 103 287 260 269 278 164 205 246 240 220 219 213 204 194 184 178 169 155 157 154 154 160 162 161 154 143 139 140 124 126 128 128 123 116 111 109 107 109 112 113 114 109 99 108 114 114 117 106 101 110 112 112 100 95 88 85 71 70 65 61 56 56
325 173 199 168 170 205 205 344 119 154 142 249 143 81 79 72 65 94 93 101 338 304 250 183 172 216 271 262 255 349 219 244 239 218 210 203 196 187 183 176 168 157 152 158 155 156 157 153 147 140 132 122 126 129 121 120 118 117 116 109 110 110 112 119 114 113 111 112 118 117 122 120 123 120 112 104 102 94 92 90 84 79 74 70 68 60
238 294 169 104 198 174 128 72 77 253 169 129 74 66 30 36 32 14 70 92 40 253 237 182 195 169 282 262 196 158 211 217 222 97 195 186 183 188 178 166 168 163 158 157 153 150 146 144 136 137 136 139 129 128 126 126 125 127 121 118 111 119 118 119 120 120 120 116 122 126 129 128 129 127 122 117 106 109 101 104 99 96 94 84 81 79
357 357 128 273 79 99 99 71 358 37 116 124 94 117 58 347 16 31 347 47 133 262 189 186 194 185 219 285 277 242 275 221 178 202 185 184 188 183 171 168 164 160 160 156 150 145 139 135 136 137 140 147 147 134 132 137 132 132 129 122 117 117 122 121 122 119 121 123 124 125 129 129 131 132 132 129 130 130 124 122 118 115 103 92 85 79
277 208 238 53 236 132 106 88 345 15 7 90 102 87 135 240 43 313 50 247 205 235 243 297 159 17 240 234 260 285 263 277 228 200 183 180 178 172 169 166 161 158 157 160 160 154 155 155 157 156 158 153 157 156 151 151 143 138 135 132 127 129 129 129 130 127 129 130 135 135 131 130 130 130 131 133 131 139 133 135 131 127 117 118 96 86
272 267 175 211 353 235 142 156 144 87 234 136 140 152 140 144 192 236 251 247 295 293 264 127 151 244 274 277 246 227 231 250 269 235 176 169 169 171 169 160 158 161 163 167 165 166 167 165 167 167 165 164 163 162 158 156 149 146 141 139 133 140 138 134 130 131 128 132 135 132 132 131 132 132 133 136 135 138 134 136 133 132 131 122 119 116
235 318 243 143 251 181 187 188 186 170 157 196 127 157 187 165 155 217 185 210 220 220 285 263 118 231 132 242 310 300 319 338 349 104 126 131 140 137 134 138 149 162 174 169 171 174 176 176 173 172 170 168 167 166 162 159 154 148 146 144 141 138 143 137 135 131 130 132 130 127 127 128 127 132 131 133 136 137 134 132 125 123 126 120 129 119
212 226 262 197 168 160 190 207 109 94 108 232 171 63 103 211 143 198 196 178 229 269 281 207 204 190 188 246 300 325 355 25 32 101 114 124 125 130 143 163 176 179 178 176 174 179 182 180 175 170 172 171 170 169 165 163 158 154 154 150 149 145 145 141 135 137 135 134 129 130 130 131 128 126 123 121 118 117 123 130 129 131 129 127 123 117
92 248 321 68 43 173 195 141 184 150 197 202 114 198 206 187 117 105 352 325 117 37 249 171 293 302 297 323 290 356 25 355 30 111 133 146 150 152 169 177 182 185 182 180 181 182 181 179 180 176 173 172 170 172 173 170 166 159 156 153 149 146 143 145 144 141 140 136 131 132 131 133 132 136 140 139 134 130 127 125 129 129 132 125 120 121
155 230 330 88 210 315 137 125 77 349 135 98 182 224 111 59 118 143 222 350 88 217 267 158 206 268 123 255 157 129 180 241 250 199 189 164 162 175 185 185 187 187 187 183 181 182 182 181 177 175 176 175 174 171 168 167 167 160 159 157 150 152 149 153 147 146 145 142 137 137 137 136 137 137 134 136 137 137 130 127 125 127 124 130 130 118
135 257 240 328 160 302 352 100 2 330 20 161 193 203 141 233 242 255 90 243 186 234 269 270 223 238 190 220 133 215 202 210 215 209 184 191 190 194 189 193 189 173 171 182 185 182 184 184 180 176 175 173 170 169 167 163 159 158 158 160 157 156 155 152 148 143 140 142 143 146 145 143 137 137 134 133 132 133 131 133 135 132 131 118 116 114
61 191 308 331 60 283 36 121 196 204 290 29 61 190 228 103 183 144 199 169 132 252 44 294 121 245 201 209 186 197 201 198 188 197 210 199 192 189 191 188 185 185 188 188 188 188 185 183 178 175 173 174 173 170 172 164 159 161 160 157 154 145 145 147 148 148 146 147 142 139 133 135 138 139 139 138 137 136 135 138 135 132 126 130 123 123
248 124 223 242 309 106 195 184 208 177 176 176 107 227 294 292 236 117 309 162 173 182 201 238 276 266 257 203 183 199 197 192 182 198 203 197 198 196 189 186 188 189 190 192 190 186 182 179 176 175 171 167 165 166 165 167 167 165 161 161 159 156 155 154 156 151 152 145 146 143 145 145 144 142 137 132 133 133 136 135 130 130 134 124 126 129
167 139 180 107 92 205 241 235 207 219 222 212 184 197 188 159 159 166 253 98 149 148 239 151 253 276 270 2 220 210 203 188 195 194 196 191 187 191 193 194 187 190 198 192 189 180 175 173 172 166 160 161 164 171 172 170 162 166 170 164 157 153 160 157 162 158 152 150 148 148 146 144 139 138 137 134 137 136 139 139 137 140 132 127 133 126
146 140 103 186 207 200 218 249 198 152 107 186 191 259 191 228 170 178 216 240 59 238 122 154 281 268 247 239 254 252 238 198 199 193 187 177 185 193 195 188 191 195 190 186 181 177 175 174 171 169 170 172 176 175 172 172 174 173 168 162 163 161 168 165 161 155 154 151 151 149 146 141 143 144 144 142 144 144 144 143 142 143 136 136 133 127
90 118 141 282 310 301 307 304 334 105 130 301 248 189 159 209 195 208 186 181 183 217 200 261 259 259 276 311 282 257 264 229 170 172 172 180 191 191 181 184 188 189 185 168 167 166 165 159 155 159 174 177 181 180 182 180 173 169 169 168 165 170 168 165 161 157 155 154 151 147 145 148 149 148 150 150 153 150 148 146 146 142 136 136 132 135
147 231 153 175 277 9 347 332 323 8 194 215 208 205 204 170 217 218 87 147 245 216 174 146 241 242 273 338 343 25 85 127 162 176 170 176 192 185 181 186 187 176 160 169 172 167 158 163 174 183 183 185 185 184 182 181 179 174 173 173 175 173 169 163 160 159 159 156 150 153 153 155 158 157 159 158 158 154 150 150 149 149 148 142 140 145
165 163 153 199 210 214 208 185 200 206 211 213 234 148 195 203 203 161 233 193 231 226 147 207 241 250 275 2 356 53 109 86 105 157 174 199 176 167 175 179 172 172 183 174 164 163 181 185 178 176 188 191 191 186 183 181 179 178 176 181 174 168 168 169 162 161 157 160 159 162 164 163 164 167 165 163 161 159 157 154 153 151 151 152 151 152
156 181 193 204 208 224 229 183 248 114 76 187 210 182 210 206 209 208 244 208 227 171 189 225 188 212 236 221 247 202 176 148 157 151 153 147 159 172 171 171 174 182 181 179 178 178 155 166 190 194 193 191 188 185 185 184 182 180 177 179 180 174 169 167 162 161 164 169 169 168 172 172 173 169 167 167 165 160 159 158 155 156 158 159 156 151
110 192 220 213 224 237 194 166 195 162 178 207 194 209 206 201 201 197 202 224 162 110 246 213 143 206 212 204 215 205 216 182 169 149 146 160 168 169 168 152 154 161 174 166 164 172 186 194 193 194 195 190 190 186 187 187 184 183 182 182 180 175 169 166 164 166 174 174 176 178 176 177 174 171 169 165 162 165 164 160 161 160 155 154 157 156
157 214 218 189 235 239 234 186 142 164 203 197 203 207 202 204 197 203 217 223 161 209 234 210 179 214 204 201 203 200 182 181 185 187 183 162 130 115 130 157 178 187 179 177 191 192 190 192 199 199 195 194 184 187 186 183 188 188 186 182 184 177 176 166 166 172 176 178 179 182 178 175 173 167 164 166 168 168 167 166 157 142 152 153 144 142
135 238 203 175 231 240 240 230 191 186 216 222 221 216 212 200 206 208 216 219 211 225 237 180 200 219 175 200 199 206 200 180 169 115 101 131 163 167 174 184 191 188 187 195 199 198 200 205 203 200 192 185 189 188 188 191 193 192 186 185 181 175 172 165 174 173 178 183 184 178 175 171 168 169 168 173 175 172 166 161 153 156 144 150 146 142
157 239 166 154 226 246 241 235 217 214 195 236 236 231 225 217 212 208 215 223 220 239 243 140 206 235 258 204 192 173 100 87 106 152 171 174 170 173 181 194 195 195 204 208 205 206 209 208 205 189 186 193 192 195 195 196 193 183 185 187 182 178 175 170 174 179 180 186 182 176 172 171 173 169 177 178 172 167 166 164 162 161 158 150 149 147
162 269 63 150 219 252 240 211 224 215 220 242 250 239 227 204 206 213 219 216 203 218 214 148 222 228 224 230 184 111 143 144 153 164 162 176 185 180 185 198 199 207 211 211 211 209 208 208 200 193 195 197 198 197 195 192 187 182 195 188 184 179 169 176 181 182 185 183 177 179 178 178 173 176 179 171 172 172 171 166 165 166 159 151 145 145
185 161 165 163 216 243 248 166 212 184 226 266 247 238 217 204 211 216 224 216 216 209 206 210 228 152 178 175 156 213 139 137 131 166 193 208 194 186 191 198 206 211 212 212 211 210 209 208 202 199 201 198 196 195 199 188 181 195 196 187 185 161 175 184 183 182 183 183 183 185 182 177 178 178 174 174 170 168 165 171 175 168 162 161 152 142
178 187 207 162 218 242 238 161 146 176 222 228 255 213 180 195 201 203 213 211 208 183 218 220 198 156 161 164 164 191 159 190 188 213 187 182 188 204 217 209 207 210 216 218 215 212 214 206 204 204 200 198 197 198 194 186 193 200 188 178 168 175 183 180 183 184 187 186 189 186 182 179 176 177 177 173 169 167 171 176 187 179 160 141 142 154
187 194 213 168 208 212 124 119 176 211 226 272 323 276 182 188 187 204 213 196 204 210 209 185 170 164 183 171 178 179 193 214 211 198 214 212 173 186 202 213 217 217 219 221 224 224 213 204 202 199 198 205 201 195 181 193 199 170 164 172 176 182 179 184 182 188 190 191 188 181 182 181 178 180 178 175 170 171 177 183 181 173 165 163 162 165
186 191 151 212 151 35 153 169 221 229 275 293 299 300 338 136 174 158 226 228 200 195 188 206 219 203 170 178 192 198 195 217 229 245 223 218 195 191 193 203 213 207 212 217 212 218 207 198 195 193 206 200 178 182 183 192 174 169 181 170 177 178 182 181 186 194 193 191 185 185 184 181 184 184 179 174 173 177 182 183 188 177 168 157 155 155
185 179 172 224 165 206 187 201 226 8 315 244 264 240 166 167 166 181 204 227 211 199 188 205 223 226 193 168 189 189 175 114 217 271 277 219 215 216 183 202 195 204 209 219 206 213 202 195 192 199 160 147 173 173 190 177 168 170 161 170 182 177 181 183 194 199 196 192 188 188 186 186 186 185 180 178 177 184 186 181 186 184 166 158 153 151
183 188 186 205 216 192 192 225 312 254 245 233 210 231 223 187 159 168 166 266 225 190 186 192 222 216 220 204 154 148 128 124 272 252 222 242 233 211 185 141 167 181 172 160 128 139 163 164 110 120 155 159 178 189 177 167 166 164 171 180 177 177 185 191 204 201 194 195 193 191 188 187 185 185 184 181 187 188 189 187 188 178 171 165 165 184
328 260 194 203 198 130 201 217 211 222 236 138 211 205 181 148 130 99 68 245 259 177 190 190 211 212 203 186 166 132 118 205 243 230 222 233 244 200 155 150 132 139 152 153 144 124 133 160 162 163 158 163 185 198 172 168 164 166 179 181 180 183 190 203 208 198 198 202 193 187 186 187 189 191 189 190 193 189 185 186 187 179 168 166 170 180
174 186 162 219 214 203 202 212 222 215 224 250 213 199 181 136 120 93 74 259 230 191 195 180 199 208 205 158 148 163 168 216 234 243 197 192 168 165 153 149 127 117 122 129 130 147 147 127 101 122 159 182 205 174 166 163 164 176 180 185 178 186 203 210 207 202 203 192 183 188 188 191 192 194 194 198 192 188 191 178 169 173 167 162 161 162
179 195 201 209 209 205 202 225 348 295 273 214 194 176 153 151 111 145 203 206 205 188 197 169 197 197 158 149 161 172 216 191 179 158 140 145 98 71 53 100 160 155 153 158 176 146 138 166 166 179 192 201 173 156 159 155 164 183 188 174 178 204 213 213 201 193 191 183 185 190 193 193 195 196 198 196 193 182 172 171 171 162 167 163 153 149
220 142 339 199 217 210 209 212 220 257 224 180 247 157 171 112 194 200 222 171 145 193 195 175 155 166 161 173 186 195 195 178 118 116 137 126 130 136 123 118 106 76 22 152 156 149 158 168 182 188 223 207 157 154 151 157 170 186 171 176 203 216 216 173 176 177 176 185 191 192 193 195 197 196 187 174 159 167 176 169 167 172 166 160 159 163
177 169 190 196 190 121 177 208 150 219 214 140 134 75 288 153 234 160 132 33 170 155 147 162 155 175 150 172 196 165 126 127 146 154 143 144 129 154 155 149 157 172 172 160 187 212 160 176 195 203 202 184 156 151 156 153 170 172 178 190 221 213 149 175 170 177 183 186 190 193 193 192 187 183 172 174 174 171 175 166 165 167 166 164 164 167
203 136 194 215 185 181 186 200 207 197 140 179 150 169 200 203 190 143 129 130 159 155 145 135 158 169 166 149 178 165 171 145 133 131 134 159 177 150 176 186 200 194 216 226 205 191 179 187 200 207 222 191 165 158 160 160 171 178 184 219 216 144 172 169 179 170 180 190 193 189 190 188 186 180 175 172 167 171 166 171 170 167 175 173 169 170
239 180 238 180 217 160 210 338 312 221 162 181 29 319 160 180 167 166 135 146 150 213 192 130 171 186 187 168 151 156 152 189 166 172 158 189 175 175 180 202 194 198 202 199 213 199 185 190 198 198 211 213 178 177 171 175 171 185 204 228 161 186 174 176 167 180 190 194 191 191 189 179 182 181 177 175 168 171 172 167 164 171 180 174 180 180
329 126 102 81 280 98 32 162 100 50 177 182 331 235 142 138 117 124 132 126 211 158 164 155 192 184 195 170 132 188 171 177 163 189 201 174 179 201 202 196 216 221 213 197 201 184 189 163 148 176 207 234 218 191 184 187 178 183 222 192 178 183 173 169 177 188 199 193 190 188 171 178 185 182 179 175 183 183 178 174 176 179 176 184 192 189
260 159 117 156 267 151 244 120 152 179 177 183 131 31 48 127 167 172 143 151 167 170 179 191 164 183 183 168 163 158 175 167 170 184 186 178 190 199 198 205 217 202 191 206 206 144 153 161 177 207 212 224 225 203 202 195 205 215 214 167 182 171 176 179 187 196 194 193 186 177 175 182 183 178 175 179 178 176 171 174 179 179 182 190 189 193
270 168 86 211 199 192 229 166 242 336 181 185 166 147 149 143 117 164 169 170 158 171 169 185 153 133 129 144 162 154 175 183 157 180 180 188 192 195 200 208 222 225 230 201 157 152 148 174 200 216 214 234 234 215 220 215 218 223 211 183 172 173 173 188 194 197 198 192 183 182 184 188 179 175 181 186 180 178 182 190 189 189 194 191 193 189
156 132 199 186 173 216 79 18 227 80 47 127 305 274 185 160 144 123 129 126 132 138 149 111 153 154 155 168 161 163 158 195 185 168 174 187 199 201 211 215 211 211 195 172 184 168 185 193 206 219 214 237 221 187 214 236 244 237 215 204 174 169 181 198 202 199 193 183 178 190 188 189 181 188 183 187 196 207 197 187 190 203 214 221 205 197
109 198 168 104 140 207 211 189 154 128 218 226 233 213 208 190 143 148 134 123 134 137 146 140 90 110 151 158 161 158 165 184 203 167 185 193 197 206 212 219 218 209 215 209 175 189 198 199 205 215 221 239 219 202 211 225 233 227 212 187 184 178 193 197 186 192 198 185 189 188 181 191 190 190 191 190 198 200 226 239 224 222 215 216 211 222
189 180 154 174 196 222 203 169 181 138 153 196 185 210 198 171 153 156 177 176 182 174 164 147 140 125 164 210 185 149 167 174 208 187 200 206 218 211 200 194 203 211 220 189 170 199 199 212 213 220 231 239 220 216 222 229 233 219 196 185 185 186 197 172 185 200 200 186 201 194 191 190 191 194 195 198 196 201 208 220 230 227 228 227 217 221